Location: North Evanston
(42.0634°N, 87.6976°W)
Time: 22:18:30
(UTC+00:00)

Transit 2A - Pass Details

Date: 11 May 2026
Orbit: 595 x 949 km, 66.7° (Epoch: 5 June)

Event Time Altitude Azimuth Distance (km) Brightness Sun altitude
Rises 08:05:34 0° 323° (NW) 3,158 9.4 -22.0°
Reaches altitude 10° 08:08:08 10° 316° (NW) 2,174 8.4 -21.8°
Enters shadow 08:11:42 35° 277° (W) 1,087 6.5 -21.4°
Maximum altitude 08:12:40 39° 248° (WSW) 995 - -21.3°
Drops below altitude 10° 08:16:49 10° 180° (S) 1,994 - -20.8°
Sets 08:19:06 0° 172° (S) 2,865 - -20.5°
